Time Latitude Longitude Accuracy (66% radius in meters) Altitude (meters) Speed (km/hour) Bearing (degrees) Battery (%) GPS flag
10:23:12 51.773181 39.219456 12 150.27875756617 1.4927797317505 223.20722961426 1 1 delete
10:23:09 51.773208 39.219456 8 150.9906491089 1.653083562851 173.58323669434 1 1 delete
10:23:06 51.773264 39.219434 8 151.69394206376 1.7655069828033 167.81884765625 1 1 delete
10:23:03 51.773331 39.219417 12 152.28748408171 1.7322653532028 171.37037658691 1 1 delete
10:23:00 51.773397 39.219391 8 152.92444393476 1.2696264982224 157.28179931641 1 1 delete
10:09:45 51.773690 39.210427 8 155.69793873102 1.263699054718 298.8366394043 1 1 delete
10:09:39 51.773650 39.210567 16 154.38162345382 0.96563977003098 304.58193969727 1 1 delete
10:09:36 51.773622 39.210628 8 153.29861352277 0.76463556289673 327.95727539062 1 1 delete
10:09:27 51.773575 39.210636 12 151.21673946935 0.88273340463638 347.24176025391 1 1 delete
10:09:15 51.773519 39.210646 16 149.4764857865 1.1036858558655 28.651218414307 1 1 delete
10:09:09 51.773461 39.210604 16 148.53720832768 1.1332681179047 23.856800079346 1 1 delete
10:09:03 51.773380 39.210538 12 147.93174814021 1.6493495702744 15.100179672241 1 1 delete
10:08:57 51.773299 39.210476 12 146.67944093249 1.1820106506348 32.56689453125 1 1 delete
10:08:51 51.773238 39.210465 12 146.24159050306 1.5881010293961 7.3513102531433 1 1 delete
10:08:42 51.773165 39.210502 16 145.72126934576 1.016502737999 18.068603515625 1 1 delete
10:08:36 51.773086 39.210509 8 145.16343424758 0.075655326247215 359.01333618164 1 1 delete
10:08:30 51.773025 39.210585 16 144.46984700371 1.8361401557922 317.08654785156 1 1 delete
10:08:27 51.772963 39.210689 16 143.94445515323 0.58459281921387 331.72866821289 1 1 delete
10:08:18 51.772917 39.210740 12 143.48596161052 1.18783223629 317.8547668457 1 1 delete
10:08:15 51.772881 39.210787 16 143.50316832879 1.0332467556 3.1947274208069 1 1 delete
10:08:09 51.772807 39.210855 16 144.34651396274 1.0535366535187 298.60409545898 1 1 delete
10:08:03 51.772802 39.210957 16 143.99090667656 1.0143626928329 330.56475830078 1 1 delete
10:08:00 51.772733 39.210969 12 144.06642764759 1.0942358970642 8.3824701309204 1 1 delete
10:07:51 51.772658 39.210972 16 144.43078853437 1.5341914892197 10.225863456726 1 1 delete
10:07:45 51.772598 39.210985 16 144.27297299964 1.5112836360931 359.2939453125 1 1 delete
10:07:42 51.772548 39.210975 12 144.13719251581 1.6330380439758 353.02563476562 1 1 delete
10:07:39 51.772483 39.210946 12 143.72882201329 1.7743111848831 49.484756469727 1 1 delete
10:07:36 51.772444 39.210879 12 142.98518380143 0 24.16890335083 1 1 delete
10:07:33 51.772388 39.210929 16 142.06875431726 2.1302106380463 329.48550415039 1 1 delete
10:07:30 51.772318 39.210998 12 140.96505995279 1.9108302593231 325.51541137695 1 1 delete
10:22:54 51.773463 39.219302 12 154.02774406793 0.87408697605133 154.62457275391 1 1 delete
10:22:48 51.773521 39.219218 16 155.40910798559 1.2095812559128 163.46952819824 1 1 delete
10:22:45 51.773573 39.219193 12 156.08248728752 1.7818289995193 150.42222595215 1 1 delete
10:22:42 51.773640 39.219157 12 156.69573782799 1.6320456266403 170.75534057617 1 1 delete
10:22:39 51.773715 39.219150 12 157.17168950341 0.8916562795639 231.49969482422 1 1 delete
10:22:33 51.773823 39.219129 12 158.07759910933 1.248822927475 159.82727050781 1 1 delete
10:22:27 51.773884 39.219068 8 158.59741942686 1.5426580905914 138.49407958984 1 1 delete
10:11:15 51.774509 39.211934 8 160.85005432728 1.9406318664551 57.774379730225 1 1 delete
10:11:12 51.774465 39.211827 12 160.41736070743 1.9422435760498 43.519889831543 1 1 delete
10:11:09 51.774423 39.211729 8 160.44500384328 1.946995973587 75.546615600586 1 1 delete
10:11:06 51.774394 39.211660 12 160.64808862951 2.0431418418884 60.308151245117 1 1 delete
10:11:03 51.774360 39.211580 12 160.60726678252 2.091080904007 78.62036895752 1 1 delete
10:11:00 51.774333 39.211469 8 160.3164985317 2.0991704463959 60.573112487793 1 1 delete
10:10:57 51.774291 39.211362 8 160.08383776273 2.1029703617096 59.185211181641 1 1 delete
10:10:54 51.774268 39.211248 12 159.88216151386 2.0520203113556 76.441772460938 1 1 delete
10:10:51 51.774250 39.211154 8 159.74245382809 2.0549750328064 63.671627044678 1 1 delete
10:10:48 51.774238 39.211047 8 159.786457695 1.9700845479965 74.202499389648 1 1 delete
10:10:45 51.774214 39.210938 8 159.80750788642 1.8856362104416 57.91565322876 1 1 delete
10:10:42 51.774185 39.210841 16 159.72163996754 1.7050441503525 52.14875793457 1 1 delete
10:10:39 51.774139 39.210772 16 159.69088403706 1.5004657506943 61.901344299316 1 1 delete